Regional Weather Roundup
Issued by NWS

Home | Current Version | Previous Version | Graphics & Text | Print | Product List | Glossary On
Versions: 1 2 3 4 5 6 7 8 9 10 11 12 13 14 15 16 17 18 19 20 21 22 23 24 25 26 27 28 29 30 31 32 33 34 35 36 37 38 39 40 41 42 43 44 45 46 47 48 49 50
000
ASUS43 KLOT 230509
RWRIL

ILLINOIS REGIONAL WEATHER ROUNDUP
NATIONAL WEATHER SERVICE CHICAGO/ROMEOVILLE IL
1200 AM CDT TUE MAY 23 2017

NOTE: "FAIR" INDICATES FEW OR NO CLOUDS BELOW 12,000 FEET WITH NO
SIGNIFICANT WEATHER AND/OR OBSTRUCTIONS TO VISIBILITY.

* THESE STATIONS ARE NOT UNDER NWS QUALITY CONTROL. THEY ALSO MAY NOT
  REPORT WEATHER SUCH AS PRECIPITATION OR FOG.

ILZ001-002-007-009-015-016-024-230600-
NORTHWEST ILLINOIS

CITY           SKY/WX    TMP DP  RH WIND       PRES   REMARKS
MOLINE         CLOUDY    59  53  80 S7        29.86F
STERLING*      CLOUDY    58  55  90 VRB3      29.88F
SAVANNA*       PTCLDY    56  54  94 SE9       29.85F
$$

ILZ003-004-008-010-011-017-018-230600-
NORTH CENTRAL ILLINOIS

CITY           SKY/WX    TMP DP  RH WIND       PRES   REMARKS
ROCKFORD       MOCLDY    59  54  83 SW10      29.88S
FREEPORT*      MOCLDY    56  54  94 S10       29.87S
ROCHELLE*      CLOUDY    56  54  92 S10       29.89S
DE KALB*       PTCLDY    57  54  89 SW8       29.89S
PERU*          CLOUDY    58  54  84 SW12      29.90F
$$

ILZ005-006-012>014-019>023-230600-
NORTHEAST ILLINOIS

CITY           SKY/WX    TMP DP  RH WIND       PRES   REMARKS
CHICAGO-OHARE  CLOUDY    60  53  77 SW6       29.88F
CHICAGO-MIDWAY CLOUDY    61  54  77 SW10      29.89F
AURORA         CLOUDY    60  55  83 S10       29.89F
LANSING*       DRIZZLE   59  55  87 SW8       29.92F
WAUKEGAN       PTCLDY    58  54  86 SW14      29.86F
DUPAGE AIRPORT CLOUDY    58  55  90 S7        29.88F
KANKAKEE*      LGT RAIN  59  54  83 SW6       29.94F
WHEELING       MOCLDY    60  55  83 S9        29.88F
MORRIS*        CLOUDY    59  55  84 SW9       29.90F
ROMEOVILLE*    CLOUDY    59  56  91 SW14      29.90S
NORTHERLY ISL    N/A     61  52  72 S7          N/A
$$

LMZ740>746-230600-
SOUTHERN LAKE MICHIGAN

STATION/POSITION SKY/WX   TEMP    WIND        PRES    VSBY  WAVE
                          AIR SEA DIR/SP/G                  HT/PER
                          (F)     (DEG/KT/KT) (MB)    (MI)  (FT/S)
SOUTHERN BUOY              51 45  230/ 14/ 14 1012.1          1/ 3
WILMETTE HARBOR            58 54                N/A           1/ 2
HARRISON CRIB              62     220/ 21/ 24   N/A
BURNHAM HARBOR             61     210/  5/ 10   N/A
CALUMET HARBOR             62     200/  6/ 10 1012.0F
BURNS HARBOR               62     220/ 12/ 16 1013.5F
MICHIGAN CITY              62     190/  7/  8   N/A
MICHIGAN CITY 6N           57 53  210/  8/ 10   N/A           1/ 4
ST. JOSEPH                 57 54  240/  8/ 10 1013.1          3/ 4
$$

ILZ025>027-034>036-040-047-049-050-058-095>099-230600-
WEST-CENTRAL ILLINOIS

CITY           SKY/WX    TMP DP  RH WIND       PRES   REMARKS
QUINCY         LGT RAIN  57  56  96 SE6       29.93F
GALESBURG*     CLOUDY    57  53  86 S10       29.88F
MACOMB*        LGT RAIN  57  55  94 S9        29.94S
JACKSONVILLE*  RAIN      56  55  94 CALM      29.96F
PITTSFIELD*    DRIZZLE   57  56  97 NE5       29.94F
$$

ILZ028>032-037-038-041>044-048-051>054-059>061-230600-
CENTRAL ILLINOIS

CITY           SKY/WX    TMP DP  RH WIND       PRES   REMARKS
PONTIAC        LGT RAIN  60  58  92 S8        29.94F
BLOOMINGTON    LGT RAIN  59  55  87 W9        29.96S
DECATUR        CLOUDY    59  56  89 CALM      29.95F
PEORIA         LGT RAIN  58  57  97 S13       29.92F
LACON*         CLOUDY    58  56  93 SW9G16    29.90F
LINCOLN*       RAIN      60  58  95 W3        29.97S
SPRINGFIELD    LGT RAIN  60  57  89 SW6       29.98R
TAYLORVILLE    CLOUDY    59  57  94 CALM      29.95F
$$

ILZ033-039-045-046-055>057-062-063-230600-
EAST-CENTRAL ILLINOIS

CITY           SKY/WX    TMP DP  RH WIND       PRES   REMARKS
CHAMPAIGN      CLOUDY    59  55  87 SE3       29.95F
RANTOUL*       CLOUDY    61  58  89 SE3       29.95F
MATTOON        CLOUDY    59  56  89 N6        29.95S
PARIS*         CLOUDY    59  53  81 CALM      29.96S
$$

ILZ079-100>102-230600-
SOUTHWEST ILLINOIS

CITY           SKY/WX    TMP DP  RH WIND       PRES   REMARKS
ALTON          CLOUDY    61  56  82 NE5       29.93F
BELLEVILLE     CLOUDY    62  56  81 CALM      29.93F
CAHOKIA*       CLOUDY    64  50  60 S3        29.92F
SPARTA*        CLOUDY    62  55  76 CALM      29.94F
$$

ILZ064>066-069>071-074>076-080>082-084>086-088>090-092>094-230600-
SOUTH-CENTRAL ILLINOIS

CITY           SKY/WX    TMP DP  RH WIND       PRES   REMARKS
CARBONDALE     MOCLDY    60  59  96 CALM      29.93F
CAIRO*         PTCLDY    64  53  68 E3        29.93S
EFFINGHAM*     CLOUDY    60  58  95 CALM      29.96F
MARION         PTCLDY    57  57 100 CALM      29.95F
MT. VERNON       N/A     58  56  93 CALM      29.94F
CENTRALIA*     CLOUDY    63  56  79 CALM      29.94S
SALEM*         CLOUDY    64  52  64 CALM      29.94F
METROPOLIS*    CLOUDY    58  55  91 CALM      29.94F
$$

ILZ067-068-072-073-078-083-087-091-230600-
SOUTHEAST ILLINOIS

CITY           SKY/WX    TMP DP  RH WIND       PRES   REMARKS
LAWRENCEVILLE  MOCLDY    62  52  69 SE7       29.95F
FLORA*         CLOUDY    64  55  73 CALM      29.95S
FAIRFIELD*     PTCLDY    64  52  63 CALM      29.94S
HARRISBURG*    CLEAR     57  53  86 CALM      29.95F
ROBINSON*      CLOUDY    61  52  72 SE3       29.96F
CARMI*         CLEAR     62  53  74 SE3       29.94F
$$

ABBREVIATIONS USED IN REMARKS
   TC - TEMPERATURE IN CELSIUS
  WCI - WIND CHILL INDEX
   HX - HEAT INDEX
  VSB - VISIBILITY
$$





USA.gov is the U.S. government's official web portal to all federal, state and local government web resources and services.